EXS11AF LEPA-EGNT

Flight info

Callsign EXS11AF
Flight time 2h 26m
Altitude 38000
Route DRAGO DCT PAPOS DCT UMURE N863 GIROM DCT GONUP DCT TUPAR UN861 ANG DCT AKIKI UN867 VASUX DCT LESTA UY250 RIMTO
Aircraft B738/M-SDE2E3FGHIRWXY/LB1

Departure

Time 2026-05-04 19:49
Airport Palma de Mallorca Airport (LEPA)

Arrival

Time 2026-05-04 22:16
Airport Newcastle International Airport (EGNT)
Time Latitude Longitude Altitude Speed Heading
2026-05-04 19:17 39.55002 2.72668 37 ft 0 kts 147°
2026-05-04 19:40 39.55015 2.72657 37 ft 3 kts 146°
2026-05-04 19:40 39.55032 2.72640 35 ft 4 kts 128°
2026-05-04 19:40 39.55042 2.72611 37 ft 4 kts 84°
2026-05-04 19:40 39.55034 2.72579 34 ft 3 kts 60°
2026-05-04 19:41 39.55023 2.72551 34 ft 2 kts 61°
2026-05-04 19:41 39.55012 2.72526 36 ft 4 kts 60°
2026-05-04 19:41 39.54998 2.72496 37 ft 4 kts 59°
2026-05-04 19:41 39.54992 2.72483 37 ft 0 kts 59°
2026-05-04 19:43 39.54992 2.72484 37 ft 1 kts 59°
2026-05-04 19:43 39.55006 2.72512 37 ft 8 kts 59°
2026-05-04 19:44 39.55082 2.72519 37 ft 16 kts 327°
2026-05-04 19:44 39.55173 2.72492 36 ft 13 kts 32°
2026-05-04 19:44 39.55224 2.72590 37 ft 13 kts 58°
2026-05-04 19:44 39.55279 2.72704 36 ft 17 kts 58°
2026-05-04 19:45 39.55352 2.72859 37 ft 22 kts 58°
2026-05-04 19:45 39.55430 2.73025 37 ft 21 kts 59°
2026-05-04 19:45 39.55504 2.73184 37 ft 21 kts 59°
2026-05-04 19:45 39.55578 2.73339 35 ft 20 kts 57°
2026-05-04 19:46 39.55651 2.73490 37 ft 19 kts 59°
2026-05-04 19:46 39.55719 2.73637 37 ft 19 kts 59°
2026-05-04 19:46 39.55785 2.73779 37 ft 18 kts 57°
2026-05-04 19:46 39.55852 2.73914 36 ft 17 kts 57°
2026-05-04 19:47 39.55915 2.74045 37 ft 17 kts 59°
2026-05-04 19:47 39.55974 2.74174 37 ft 16 kts 59°
2026-05-04 19:47 39.56047 2.74277 37 ft 16 kts 34°
2026-05-04 19:47 39.56142 2.74340 36 ft 15 kts 22°
2026-05-04 19:48 39.56232 2.74308 37 ft 14 kts 298°
2026-05-04 19:48 39.56226 2.74268 37 ft 0 kts 240°
2026-05-04 19:48 39.56223 2.74262 37 ft 6 kts 240°
2026-05-04 19:48 39.56079 2.73952 36 ft 75 kts 238°
2026-05-04 19:49 39.55690 2.73131 36 ft 136 kts 238°
2026-05-04 19:49 39.55133 2.71935 302 ft 163 kts 237°
2026-05-04 19:49 39.54524 2.70628 913 ft 177 kts 238°
2026-05-04 19:49 39.53910 2.69238 1744 ft 173 kts 240°
2026-05-04 19:50 39.53281 2.67976 2591 ft 163 kts 237°
2026-05-04 19:50 39.52612 2.66691 2855 ft 185 kts 236°
2026-05-04 19:50 39.51847 2.65245 3017 ft 205 kts 237°
2026-05-04 19:50 39.51003 2.63636 3229 ft 227 kts 237°
2026-05-04 19:51 39.50092 2.61883 3628 ft 240 kts 237°
2026-05-04 19:51 39.49160 2.60073 4182 ft 248 kts 237°
2026-05-04 19:51 39.48203 2.58209 4869 ft 250 kts 237°
2026-05-04 19:51 39.47233 2.56314 5488 ft 254 kts 238°
2026-05-04 19:52 39.46256 2.54404 6211 ft 255 kts 238°
2026-05-04 19:52 39.45295 2.52466 6879 ft 257 kts 244°
2026-05-04 19:52 39.44924 2.50226 7556 ft 259 kts 273°
2026-05-04 19:52 39.45412 2.47983 8286 ft 265 kts 294°
2026-05-04 19:53 39.46568 2.46080 8948 ft 277 kts 316°
2026-05-04 19:53 39.48188 2.44673 9648 ft 284 kts 324°
2026-05-04 19:53 39.49922 2.43381 10254 ft 291 kts 324°
2026-05-04 19:53 39.51740 2.42019 10425 ft 314 kts 324°
2026-05-04 19:54 39.53685 2.40535 10618 ft 333 kts 324°
2026-05-04 19:54 39.55614 2.38841 11124 ft 335 kts 313°
2026-05-04 19:54 39.57256 2.36720 11865 ft 333 kts 309°
2026-05-04 19:54 39.58845 2.34509 12540 ft 338 kts 308°
2026-05-04 19:55 39.60448 2.32252 13217 ft 342 kts 308°
2026-05-04 19:55 39.62071 2.29979 13923 ft 345 kts 308°
2026-05-04 19:55 39.63718 2.27691 14597 ft 348 kts 308°
2026-05-04 19:55 39.65386 2.25387 15288 ft 351 kts 308°
2026-05-04 19:56 39.67066 2.23077 15985 ft 353 kts 307°
2026-05-04 19:56 39.68762 2.20749 16655 ft 357 kts 307°
2026-05-04 19:56 39.70454 2.18430 17318 ft 360 kts 307°
2026-05-04 19:56 39.72203 2.16032 17990 ft 363 kts 307°
2026-05-04 19:57 39.73923 2.13674 18592 ft 366 kts 307°
2026-05-04 19:57 39.75678 2.11266 19159 ft 369 kts 307°
2026-05-04 19:57 39.77449 2.08835 19714 ft 372 kts 306°
2026-05-04 19:57 39.79234 2.06382 20286 ft 375 kts 306°
2026-05-04 19:58 39.81036 2.03904 20779 ft 380 kts 306°
2026-05-04 19:58 39.82858 2.01395 21307 ft 383 kts 306°
2026-05-04 19:58 39.84693 1.98870 21858 ft 385 kts 306°
2026-05-04 19:58 39.86539 1.96327 22390 ft 388 kts 306°
2026-05-04 19:59 39.88402 1.93756 22905 ft 391 kts 306°
2026-05-04 19:59 39.90277 1.91168 23415 ft 395 kts 306°
2026-05-04 19:59 39.92163 1.88562 23879 ft 397 kts 306°
2026-05-04 19:59 39.94066 1.85931 24310 ft 399 kts 306°
2026-05-04 20:00 39.95974 1.83291 24735 ft 402 kts 306°
2026-05-04 20:00 39.97897 1.80628 25147 ft 404 kts 306°
2026-05-04 20:00 39.99839 1.77963 25545 ft 409 kts 308°
2026-05-04 20:00 40.02197 1.75762 25907 ft 430 kts 327°
2026-05-04 20:01 40.04993 1.74250 26303 ft 437 kts 331°
2026-05-04 20:01 40.07846 1.72825 26666 ft 441 kts 332°
2026-05-04 20:01 40.10725 1.71405 27032 ft 443 kts 332°
2026-05-04 20:01 40.13619 1.69967 27404 ft 446 kts 332°
2026-05-04 20:02 40.16480 1.68528 27768 ft 447 kts 332°
2026-05-04 20:02 40.19425 1.67030 28133 ft 450 kts 331°
2026-05-04 20:02 40.22303 1.65553 28477 ft 452 kts 331°
2026-05-04 20:02 40.25233 1.64042 28842 ft 454 kts 331°
2026-05-04 20:03 40.28184 1.62517 29175 ft 456 kts 332°
2026-05-04 20:03 40.31141 1.60987 29514 ft 458 kts 332°
2026-05-04 20:03 40.34114 1.59449 29835 ft 460 kts 332°
2026-05-04 20:03 40.37102 1.57901 30123 ft 462 kts 332°
2026-05-04 20:04 40.40099 1.56347 30381 ft 464 kts 332°
2026-05-04 20:04 40.43105 1.54789 30653 ft 466 kts 332°
2026-05-04 20:04 40.46116 1.53226 31006 ft 465 kts 332°
2026-05-04 20:04 40.49118 1.51668 31444 ft 463 kts 332°
2026-05-04 20:05 40.52099 1.50118 31849 ft 460 kts 332°
2026-05-04 20:05 40.55079 1.48566 32200 ft 460 kts 332°
2026-05-04 20:05 40.58052 1.47015 32509 ft 460 kts 331°
2026-05-04 20:05 40.61016 1.45468 32838 ft 459 kts 331°
2026-05-04 20:06 40.63983 1.43920 33195 ft 458 kts 331°
2026-05-04 20:06 40.66942 1.42378 33544 ft 457 kts 331°
2026-05-04 20:06 40.69894 1.40838 33870 ft 456 kts 331°
2026-05-04 20:06 40.72841 1.39299 34138 ft 455 kts 331°
2026-05-04 20:07 40.75785 1.37759 34386 ft 455 kts 331°
2026-05-04 20:07 40.78726 1.36219 34650 ft 454 kts 331°
2026-05-04 20:07 40.81657 1.34683 34904 ft 454 kts 331°
2026-05-04 20:07 40.84593 1.33143 35149 ft 453 kts 331°
2026-05-04 20:08 40.87522 1.31605 35397 ft 453 kts 331°
2026-05-04 20:08 40.90449 1.30066 35675 ft 452 kts 331°
2026-05-04 20:08 40.93378 1.28525 35873 ft 453 kts 332°
2026-05-04 20:08 40.96274 1.26998 36033 ft 455 kts 332°
2026-05-04 20:09 40.99209 1.25451 36265 ft 454 kts 332°
2026-05-04 20:09 41.02178 1.23885 36545 ft 452 kts 332°
2026-05-04 20:09 41.05097 1.22344 36790 ft 452 kts 332°
2026-05-04 20:09 41.07979 1.20820 36992 ft 451 kts 332°
2026-05-04 20:10 41.10896 1.19276 37214 ft 451 kts 332°
2026-05-04 20:10 41.13831 1.17778 37450 ft 453 kts 336°
2026-05-04 20:10 41.16919 1.16766 37582 ft 463 kts 346°
2026-05-04 20:10 41.20152 1.16361 37760 ft 467 kts 351°
2026-05-04 20:11 41.23402 1.16104 37963 ft 467 kts 351°
2026-05-04 20:11 41.29879 1.15546 37964 ft 468 kts 350°
2026-05-04 20:12 41.36345 1.14870 37971 ft 464 kts 350°
2026-05-04 20:12 41.42767 1.14204 37960 ft 462 kts 350°
2026-05-04 20:13 41.49154 1.13544 37945 ft 459 kts 350°
2026-05-04 20:13 41.55515 1.12884 37944 ft 457 kts 349°
2026-05-04 20:14 41.61857 1.12183 37952 ft 457 kts 349°
2026-05-04 20:14 41.68203 1.11476 37961 ft 459 kts 349°
2026-05-04 20:15 41.74583 1.10787 37969 ft 461 kts 350°
2026-05-04 20:15 41.81005 1.10119 37973 ft 464 kts 350°
2026-05-04 20:16 41.87453 1.09446 37990 ft 466 kts 350°
2026-05-04 20:16 41.93938 1.08764 37990 ft 469 kts 350°
2026-05-04 20:17 42.00453 1.08076 38004 ft 470 kts 350°
2026-05-04 20:17 42.06988 1.07385 37981 ft 472 kts 350°
2026-05-04 20:18 42.13485 1.06697 37974 ft 472 kts 350°
2026-05-04 20:18 42.20022 1.05991 37973 ft 471 kts 350°
2026-05-04 20:19 42.26548 1.05271 37952 ft 469 kts 350°
2026-05-04 20:19 42.33053 1.04553 37943 ft 468 kts 350°
2026-05-04 20:20 42.39528 1.03840 37946 ft 466 kts 350°
2026-05-04 20:20 42.45978 1.03129 37960 ft 464 kts 351°
2026-05-04 20:21 42.52411 1.02433 37959 ft 463 kts 351°
2026-05-04 20:21 42.62049 1.01387 37992 ft 462 kts 351°
2026-05-04 20:22 42.68478 1.00685 37989 ft 464 kts 351°
2026-05-04 20:22 42.74924 0.99982 37992 ft 466 kts 351°
2026-05-04 20:23 42.81236 0.98648 38016 ft 460 kts 341°
2026-05-04 20:23 42.87441 0.96427 37998 ft 463 kts 340°
2026-05-04 20:24 42.93672 0.94168 37997 ft 463 kts 340°
2026-05-04 20:24 42.99915 0.91979 37989 ft 463 kts 340°
2026-05-04 20:25 43.06173 0.89815 38005 ft 464 kts 341°
2026-05-04 20:25 43.12421 0.87654 38018 ft 463 kts 341°
2026-05-04 20:26 43.18670 0.85485 38011 ft 463 kts 341°
2026-05-04 20:26 43.24913 0.83312 38011 ft 463 kts 341°
2026-05-04 20:27 43.31160 0.81132 38005 ft 463 kts 341°
2026-05-04 20:27 43.37399 0.78951 37999 ft 463 kts 341°
2026-05-04 20:28 43.42587 0.77134 38000 ft 463 kts 341°
2026-05-04 20:28 43.48797 0.74816 38003 ft 462 kts 338°
2026-05-04 20:29 43.54896 0.72048 38003 ft 461 kts 336°
2026-05-04 20:29 43.60972 0.69189 37992 ft 462 kts 336°
2026-05-04 20:30 43.67060 0.66362 37995 ft 462 kts 337°
2026-05-04 20:30 43.73171 0.63554 37987 ft 463 kts 337°
2026-05-04 20:31 43.79296 0.60746 37994 ft 464 kts 337°
2026-05-04 20:31 43.85426 0.57931 37993 ft 465 kts 338°
2026-05-04 20:32 43.91527 0.55122 37981 ft 465 kts 337°
2026-05-04 20:32 43.97672 0.52285 37977 ft 466 kts 337°
2026-05-04 20:33 44.03819 0.49441 37977 ft 466 kts 338°
2026-05-04 20:33 44.09969 0.46590 37969 ft 466 kts 338°
2026-05-04 20:34 44.16125 0.43730 37968 ft 466 kts 338°
2026-05-04 20:34 44.22270 0.40868 37966 ft 466 kts 338°
2026-05-04 20:35 44.28431 0.37992 37992 ft 466 kts 338°
2026-05-04 20:35 44.34577 0.35117 37978 ft 467 kts 338°
2026-05-04 20:36 44.40746 0.32225 37984 ft 467 kts 338°
2026-05-04 20:36 44.46900 0.29333 37972 ft 467 kts 338°
2026-05-04 20:37 44.53064 0.26431 37972 ft 467 kts 338°
2026-05-04 20:37 44.59221 0.23525 37977 ft 467 kts 338°
2026-05-04 20:38 44.65381 0.20611 37971 ft 467 kts 338°
2026-05-04 20:38 44.71495 0.17712 37973 ft 467 kts 338°
2026-05-04 20:39 44.77650 0.14788 37967 ft 467 kts 338°
2026-05-04 20:39 44.83809 0.11855 37969 ft 467 kts 338°
2026-05-04 20:40 44.89969 0.08915 37968 ft 467 kts 338°
2026-05-04 20:40 44.96124 0.05970 37971 ft 467 kts 338°
2026-05-04 20:41 45.02215 0.03050 37980 ft 468 kts 338°
2026-05-04 20:41 45.08376 0.00089 37968 ft 468 kts 338°
2026-05-04 20:42 45.14543 -0.02881 37977 ft 468 kts 338°
2026-05-04 20:42 45.20715 -0.05861 37978 ft 469 kts 338°
2026-05-04 20:43 45.26893 -0.08850 37962 ft 469 kts 338°
2026-05-04 20:43 45.33069 -0.11845 37958 ft 469 kts 338°
2026-05-04 20:44 45.39123 -0.14788 37975 ft 469 kts 338°
2026-05-04 20:44 45.45366 -0.17829 37966 ft 469 kts 338°
2026-05-04 20:45 45.51343 -0.20748 37960 ft 468 kts 338°
2026-05-04 20:45 45.57508 -0.23765 37964 ft 469 kts 338°
2026-05-04 20:46 45.63678 -0.26792 37969 ft 469 kts 338°
2026-05-04 20:46 45.69847 -0.29826 37968 ft 469 kts 338°
2026-05-04 20:47 45.76014 -0.32865 37958 ft 469 kts 338°
2026-05-04 20:47 45.82180 -0.35911 37958 ft 469 kts 338°
2026-05-04 20:48 45.88352 -0.38968 37950 ft 469 kts 338°
2026-05-04 20:48 45.94517 -0.42028 37948 ft 469 kts 338°
2026-05-04 20:49 46.00648 -0.45078 37952 ft 469 kts 338°
2026-05-04 20:49 46.06818 -0.48155 37954 ft 469 kts 338°
2026-05-04 20:50 46.12992 -0.51242 37954 ft 470 kts 338°
2026-05-04 20:50 46.19170 -0.54338 37959 ft 470 kts 338°
2026-05-04 20:51 46.25344 -0.57439 37950 ft 470 kts 338°
2026-05-04 20:51 46.31520 -0.60549 37945 ft 470 kts 338°
2026-05-04 20:52 46.37557 -0.63596 37955 ft 470 kts 338°
2026-05-04 20:52 46.43773 -0.66503 37946 ft 471 kts 347°
2026-05-04 20:53 46.50282 -0.67726 37954 ft 472 kts 352°
2026-05-04 20:53 46.56823 -0.68703 37955 ft 472 kts 352°
2026-05-04 20:54 46.63351 -0.69734 37954 ft 471 kts 352°
2026-05-04 20:54 46.69804 -0.70808 37949 ft 471 kts 352°
2026-05-04 20:55 46.76309 -0.71911 37952 ft 470 kts 352°
2026-05-04 20:55 46.82806 -0.73015 37952 ft 470 kts 352°
2026-05-04 20:56 46.89300 -0.74118 37952 ft 469 kts 352°
2026-05-04 20:56 46.95785 -0.75222 37953 ft 469 kts 352°
2026-05-04 20:57 47.02273 -0.76329 37947 ft 469 kts 352°
2026-05-04 20:57 47.08752 -0.77437 37949 ft 469 kts 352°
2026-05-04 20:58 47.15236 -0.78548 37945 ft 469 kts 352°
2026-05-04 20:58 47.21712 -0.79661 37943 ft 469 kts 352°
2026-05-04 20:59 47.28203 -0.80780 37943 ft 469 kts 352°
2026-05-04 20:59 47.34683 -0.81899 37943 ft 469 kts 352°
2026-05-04 21:00 47.41166 -0.83021 37947 ft 469 kts 352°
2026-05-04 21:00 47.47655 -0.84148 37951 ft 470 kts 352°
2026-05-04 21:01 47.54140 -0.85289 37945 ft 469 kts 351°
2026-05-04 21:01 47.60578 -0.86858 37947 ft 468 kts 348°
2026-05-04 21:02 47.66944 -0.88627 37942 ft 468 kts 348°
2026-05-04 21:02 47.73343 -0.90390 37946 ft 468 kts 348°
2026-05-04 21:03 47.79740 -0.92112 37945 ft 467 kts 348°
2026-05-04 21:03 47.86141 -0.93821 37944 ft 467 kts 349°
2026-05-04 21:04 47.92530 -0.95528 37946 ft 466 kts 349°
2026-05-04 21:04 47.98923 -0.97243 37947 ft 466 kts 349°
2026-05-04 21:05 48.05296 -0.98957 37953 ft 466 kts 348°
2026-05-04 21:05 48.11678 -1.00678 37952 ft 466 kts 348°
2026-05-04 21:06 48.18057 -1.02404 37962 ft 465 kts 348°
2026-05-04 21:06 48.24431 -1.04132 37970 ft 465 kts 348°
2026-05-04 21:07 48.30805 -1.05864 37961 ft 465 kts 348°
2026-05-04 21:07 48.37170 -1.07598 37961 ft 465 kts 348°
2026-05-04 21:08 48.43500 -1.09327 37965 ft 465 kts 348°
2026-05-04 21:08 48.49863 -1.11070 37977 ft 464 kts 348°
2026-05-04 21:09 48.56217 -1.12814 37974 ft 464 kts 349°
2026-05-04 21:09 48.62565 -1.14562 37978 ft 464 kts 348°
2026-05-04 21:10 48.68908 -1.16312 37986 ft 463 kts 349°
2026-05-04 21:10 48.75239 -1.18063 37981 ft 462 kts 349°
2026-05-04 21:11 48.81562 -1.19817 37983 ft 461 kts 349°
2026-05-04 21:11 48.87875 -1.21573 37989 ft 461 kts 349°
2026-05-04 21:12 48.94180 -1.23331 37991 ft 460 kts 349°
2026-05-04 21:12 49.00474 -1.25090 37991 ft 460 kts 349°
2026-05-04 21:13 49.06770 -1.26855 37991 ft 460 kts 349°
2026-05-04 21:13 49.13058 -1.28621 37995 ft 459 kts 349°
2026-05-04 21:14 49.19300 -1.30380 37996 ft 459 kts 349°
2026-05-04 21:14 49.25586 -1.32155 37997 ft 459 kts 349°
2026-05-04 21:15 49.31879 -1.33937 38012 ft 460 kts 349°
2026-05-04 21:15 49.38172 -1.35723 38010 ft 460 kts 349°
2026-05-04 21:16 49.44469 -1.37516 38014 ft 460 kts 349°
2026-05-04 21:16 49.50770 -1.39314 38015 ft 461 kts 349°
2026-05-04 21:17 49.57069 -1.41114 38022 ft 460 kts 350°
2026-05-04 21:17 49.63448 -1.41535 38036 ft 460 kts
2026-05-04 21:18 49.69566 -1.40870 38021 ft 460 kts
2026-05-04 21:18 49.75146 -1.40273 38018 ft 460 kts
2026-05-04 21:19 49.79990 -1.39810 38024 ft 459 kts
2026-05-04 21:19 49.84678 -1.39387 38021 ft 459 kts
2026-05-04 21:20 49.89368 -1.38967 38013 ft 459 kts
2026-05-04 21:20 49.93992 -1.38549 38012 ft 459 kts
2026-05-04 21:21 49.97795 -1.38202 38015 ft 459 kts
2026-05-04 21:21 50.02352 -1.37619 38014 ft 459 kts
2026-05-04 21:22 50.06860 -1.36549 38004 ft 458 kts 10°
2026-05-04 21:22 50.11401 -1.35314 38012 ft 458 kts 10°
2026-05-04 21:23 50.15912 -1.34107 38019 ft 459 kts
2026-05-04 21:23 50.20430 -1.32949 38021 ft 459 kts
2026-05-04 21:24 50.24967 -1.31819 38016 ft 460 kts
2026-05-04 21:24 50.30000 -1.30574 38016 ft 460 kts
2026-05-04 21:25 50.36234 -1.29024 38019 ft 461 kts
2026-05-04 21:25 50.42550 -1.27444 38015 ft 461 kts
2026-05-04 21:26 50.48886 -1.25856 38016 ft 461 kts
2026-05-04 21:26 50.55269 -1.24849 38022 ft 461 kts
2026-05-04 21:27 50.61629 -1.24452 38020 ft 460 kts
2026-05-04 21:27 50.68003 -1.24073 38020 ft 459 kts
2026-05-04 21:28 50.74377 -1.23619 38017 ft 459 kts
2026-05-04 21:28 50.80712 -1.23125 38025 ft 458 kts
2026-05-04 21:29 50.86995 -1.22625 38018 ft 457 kts
2026-05-04 21:29 50.93336 -1.22120 38022 ft 456 kts
2026-05-04 21:30 50.99669 -1.21617 38017 ft 455 kts
2026-05-04 21:30 51.05987 -1.21114 38022 ft 454 kts
2026-05-04 21:31 51.15457 -1.20357 38023 ft 454 kts
2026-05-04 21:32 51.21760 -1.19852 38025 ft 454 kts
2026-05-04 21:32 51.28071 -1.19345 38024 ft 454 kts
2026-05-04 21:33 51.34380 -1.18836 38039 ft 454 kts
2026-05-04 21:33 51.40652 -1.18329 38043 ft 454 kts
2026-05-04 21:34 51.46964 -1.17818 38044 ft 454 kts
2026-05-04 21:34 51.53270 -1.17305 38049 ft 454 kts
2026-05-04 21:35 51.59514 -1.16796 38051 ft 454 kts
2026-05-04 21:35 51.65824 -1.16281 38046 ft 454 kts
2026-05-04 21:36 51.72128 -1.15764 38052 ft 454 kts
2026-05-04 21:36 51.78424 -1.15246 38048 ft 453 kts
2026-05-04 21:37 51.84721 -1.14727 38050 ft 453 kts
2026-05-04 21:37 51.91019 -1.14207 38045 ft 453 kts
2026-05-04 21:38 51.97309 -1.13686 38043 ft 453 kts
2026-05-04 21:38 52.03604 -1.13162 38046 ft 452 kts
2026-05-04 21:39 52.09888 -1.12638 38048 ft 452 kts
2026-05-04 21:39 52.16173 -1.12113 38044 ft 452 kts
2026-05-04 21:40 52.22450 -1.11587 38049 ft 451 kts
2026-05-04 21:40 52.28714 -1.11061 38056 ft 451 kts
2026-05-04 21:41 52.34973 -1.10533 38043 ft 450 kts
2026-05-04 21:41 52.41213 -1.10005 38045 ft 448 kts
2026-05-04 21:42 52.47434 -1.09478 38045 ft 447 kts
2026-05-04 21:42 52.53624 -1.08952 38047 ft 445 kts
2026-05-04 21:43 52.59765 -1.08428 38045 ft 444 kts
2026-05-04 21:43 52.65924 -1.07902 38046 ft 443 kts
2026-05-04 21:44 52.72074 -1.07375 38047 ft 442 kts
2026-05-04 21:44 52.78174 -1.08203 38084 ft 440 kts 349°
2026-05-04 21:45 52.84201 -1.10134 38081 ft 441 kts 348°
2026-05-04 21:45 52.90238 -1.12070 38061 ft 443 kts 349°
2026-05-04 21:45 52.93293 -1.13024 37584 ft 449 kts 349°
2026-05-04 21:46 52.96341 -1.13964 37257 ft 443 kts 349°
2026-05-04 21:46 52.99361 -1.14889 36836 ft 439 kts 349°
2026-05-04 21:46 53.02345 -1.15801 36463 ft 434 kts 350°
2026-05-04 21:46 53.05301 -1.16706 36090 ft 430 kts 350°
2026-05-04 21:47 53.08233 -1.17605 35696 ft 426 kts 350°
2026-05-04 21:47 53.11134 -1.18496 35313 ft 423 kts 351°
2026-05-04 21:47 53.14016 -1.19383 34935 ft 419 kts 351°
2026-05-04 21:47 53.16866 -1.20262 34562 ft 416 kts 351°
2026-05-04 21:48 53.19706 -1.21139 34191 ft 413 kts 351°
2026-05-04 21:48 53.22518 -1.22009 33784 ft 409 kts 351°
2026-05-04 21:48 53.25301 -1.22870 33380 ft 406 kts 351°
2026-05-04 21:48 53.28064 -1.23726 33029 ft 402 kts 351°
2026-05-04 21:49 53.30801 -1.24575 32649 ft 398 kts 351°
2026-05-04 21:49 53.33513 -1.25418 32306 ft 394 kts 351°
2026-05-04 21:49 53.36198 -1.26253 31936 ft 391 kts 351°
2026-05-04 21:49 53.38866 -1.27084 31579 ft 388 kts 351°
2026-05-04 21:50 53.41420 -1.27878 31245 ft 385 kts 352°
2026-05-04 21:50 53.44059 -1.28445 30973 ft 379 kts 357°
2026-05-04 21:50 53.46683 -1.28739 30638 ft 377 kts 358°
2026-05-04 21:50 53.49291 -1.28981 30302 ft 374 kts 358°
2026-05-04 21:51 53.51801 -1.29248 29960 ft 372 kts 358°
2026-05-04 21:51 53.54371 -1.29554 29558 ft 370 kts 357°
2026-05-04 21:51 53.56889 -1.29953 29202 ft 367 kts 351°
2026-05-04 21:51 53.59348 -1.31061 28858 ft 365 kts 340°
2026-05-04 21:52 53.61637 -1.32878 28466 ft 364 kts 330°
2026-05-04 21:52 53.63790 -1.35060 28118 ft 361 kts 329°
2026-05-04 21:52 53.65956 -1.37311 27757 ft 358 kts 329°
2026-05-04 21:52 53.68045 -1.39471 27419 ft 356 kts 329°
2026-05-04 21:53 53.70153 -1.41626 27063 ft 354 kts 329°
2026-05-04 21:53 53.72252 -1.43760 26755 ft 351 kts 329°
2026-05-04 21:53 53.74333 -1.45876 26416 ft 348 kts 329°
2026-05-04 21:53 53.76404 -1.47985 26079 ft 346 kts 329°
2026-05-04 21:54 53.78456 -1.50078 25748 ft 344 kts 329°
2026-05-04 21:54 53.80500 -1.52165 25425 ft 342 kts 329°
2026-05-04 21:54 53.82537 -1.54248 25100 ft 340 kts 329°
2026-05-04 21:54 53.84555 -1.56314 24776 ft 339 kts 329°
2026-05-04 21:55 53.86564 -1.58373 24457 ft 337 kts 329°
2026-05-04 21:55 53.88568 -1.60430 24132 ft 336 kts 328°
2026-05-04 21:55 53.90562 -1.62478 23813 ft 335 kts 328°
2026-05-04 21:55 53.92550 -1.64523 23461 ft 334 kts 328°
2026-05-04 21:56 53.94535 -1.66567 23090 ft 332 kts 328°
2026-05-04 21:56 53.96503 -1.68595 22748 ft 330 kts 328°
2026-05-04 21:56 53.98459 -1.70614 22438 ft 328 kts 328°
2026-05-04 21:56 54.00399 -1.72618 22114 ft 326 kts 327°
2026-05-04 21:57 54.02326 -1.74611 21795 ft 323 kts 327°
2026-05-04 21:57 54.04244 -1.76598 21481 ft 321 kts 327°
2026-05-04 21:57 54.06146 -1.78570 21169 ft 319 kts 327°
2026-05-04 21:57 54.08037 -1.80532 20856 ft 317 kts 327°
2026-05-04 21:58 54.09915 -1.82482 20545 ft 316 kts 327°
2026-05-04 21:58 54.11787 -1.84428 20234 ft 314 kts 327°
2026-05-04 21:58 54.13753 -1.86037 19889 ft 316 kts 346°
2026-05-04 21:58 54.15934 -1.86230 19605 ft 316 kts
2026-05-04 21:59 54.18097 -1.85611 19306 ft 315 kts
2026-05-04 21:59 54.20247 -1.84904 18993 ft 315 kts
2026-05-04 21:59 54.22398 -1.84186 18680 ft 314 kts
2026-05-04 21:59 54.24542 -1.83482 18365 ft 314 kts
2026-05-04 22:00 54.26695 -1.82787 18002 ft 314 kts
2026-05-04 22:00 54.28838 -1.82103 17677 ft 313 kts
2026-05-04 22:00 54.30969 -1.81428 17363 ft 311 kts
2026-05-04 22:00 54.33096 -1.80757 17057 ft 309 kts
2026-05-04 22:01 54.35181 -1.80100 16760 ft 308 kts
2026-05-04 22:01 54.37304 -1.79430 16458 ft 306 kts
2026-05-04 22:01 54.39368 -1.78779 16161 ft 305 kts
2026-05-04 22:01 54.41462 -1.78118 15652 ft 311 kts
2026-05-04 22:02 54.43648 -1.77430 15026 ft 320 kts
2026-05-04 22:02 54.45876 -1.76725 14375 ft 330 kts
2026-05-04 22:02 54.48130 -1.76009 13701 ft 337 kts
2026-05-04 22:02 54.50434 -1.75271 13323 ft 328 kts
2026-05-04 22:03 54.52676 -1.74556 13206 ft 333 kts
2026-05-04 22:03 54.54949 -1.73833 13082 ft 330 kts
2026-05-04 22:03 54.57191 -1.73117 13055 ft 326 kts
2026-05-04 22:03 54.59426 -1.72405 13044 ft 328 kts
2026-05-04 22:04 54.61679 -1.71688 13051 ft 328 kts
2026-05-04 22:04 54.63923 -1.70973 13038 ft 328 kts
2026-05-04 22:04 54.66163 -1.70256 13032 ft 328 kts
2026-05-04 22:04 54.68408 -1.69537 13046 ft 328 kts
2026-05-04 22:05 54.70642 -1.68763 13047 ft 328 kts 12°
2026-05-04 22:05 54.72826 -1.67615 12994 ft 325 kts 16°
2026-05-04 22:05 54.74943 -1.66324 12546 ft 323 kts 19°
2026-05-04 22:05 54.76905 -1.64430 11912 ft 326 kts 36°
2026-05-04 22:06 54.78493 -1.61616 11266 ft 328 kts 48°
2026-05-04 22:06 54.79920 -1.58553 10717 ft 324 kts 50°
2026-05-04 22:06 54.81301 -1.55495 10162 ft 321 kts 50°
2026-05-04 22:06 54.82664 -1.52445 9588 ft 318 kts 50°
2026-05-04 22:07 54.84012 -1.49415 8959 ft 316 kts 50°
2026-05-04 22:07 54.85353 -1.46410 8346 ft 314 kts 50°
2026-05-04 22:07 54.86730 -1.43473 7742 ft 311 kts 43°
2026-05-04 22:07 54.88428 -1.41303 7518 ft 294 kts 27°
2026-05-04 22:08 54.90163 -1.39640 7396 ft 278 kts 26°
2026-05-04 22:08 54.91827 -1.38099 7276 ft 263 kts 25°
2026-05-04 22:08 54.93403 -1.36639 7112 ft 253 kts 25°
2026-05-04 22:08 54.94944 -1.35213 6742 ft 251 kts 25°
2026-05-04 22:09 54.96492 -1.33787 6351 ft 251 kts 25°
2026-05-04 22:09 54.98064 -1.32502 5981 ft 248 kts 17°
2026-05-04 22:09 54.99688 -1.31778 5659 ft 240 kts
2026-05-04 22:09 55.01319 -1.31743 5240 ft 231 kts 346°
2026-05-04 22:10 55.02344 -1.32170 4910 ft 228 kts 343°
2026-05-04 22:10 55.03867 -1.32842 4535 ft 219 kts 343°
2026-05-04 22:10 55.05292 -1.33465 4312 ft 207 kts 343°
2026-05-04 22:10 55.06641 -1.34212 3903 ft 202 kts 328°
2026-05-04 22:11 55.07587 -1.35918 3606 ft 191 kts 302°
2026-05-04 22:11 55.08207 -1.37947 3363 ft 187 kts 296°
2026-05-04 22:11 55.08761 -1.39940 3169 ft 179 kts 295°
2026-05-04 22:11 55.09299 -1.41901 3025 ft 179 kts 295°
2026-05-04 22:12 55.09813 -1.43870 2875 ft 175 kts 289°
2026-05-04 22:12 55.09772 -1.45876 2820 ft 164 kts 250°
2026-05-04 22:12 55.09231 -1.48376 2656 ft 166 kts 251°
2026-05-04 22:12 55.08925 -1.49639 2490 ft 167 kts 249°
2026-05-04 22:13 55.08448 -1.51465 2273 ft 164 kts 249°
2026-05-04 22:13 55.07969 -1.53264 2056 ft 162 kts 249°
2026-05-04 22:13 55.07501 -1.55019 1833 ft 156 kts 249°
2026-05-04 22:13 55.07060 -1.56667 1675 ft 144 kts 249°
2026-05-04 22:14 55.06640 -1.58211 1457 ft 142 kts 249°
2026-05-04 22:14 55.06223 -1.59804 1241 ft 145 kts 249°
2026-05-04 22:14 55.05804 -1.61383 1027 ft 141 kts 248°
2026-05-04 22:14 55.05394 -1.62945 835 ft 144 kts 248°
2026-05-04 22:15 55.04971 -1.64532 661 ft 140 kts 246°
2026-05-04 22:15 55.04578 -1.66016 460 ft 137 kts 247°
2026-05-04 22:15 55.04175 -1.67547 292 ft 139 kts 247°
2026-05-04 22:15 55.03797 -1.68965 251 ft 117 kts 244°
2026-05-04 22:16 55.03527 -1.69981 261 ft 58 kts 245°
2026-05-04 22:16 55.03388 -1.70520 266 ft 16 kts 265°
2026-05-04 22:16 55.03455 -1.70646 267 ft 13 kts 358°
2026-05-04 22:16 55.03541 -1.70643 266 ft 12 kts
2026-05-04 22:17 55.03592 -1.70543 266 ft 12 kts 80°
2026-05-04 22:17 55.03640 -1.70443 266 ft 12 kts
2026-05-04 22:17 55.03705 -1.70435 266 ft 6 kts
2026-05-04 22:17 55.03747 -1.70428 266 ft 6 kts
2026-05-04 22:18 55.03786 -1.70449 266 ft 6 kts 317°
2026-05-04 22:18 55.03800 -1.70517 266 ft 6 kts 272°
2026-05-04 22:18 55.03802 -1.70590 266 ft 6 kts 275°
2026-05-04 22:18 55.03815 -1.70655 266 ft 6 kts 324°
2026-05-04 22:19 55.03854 -1.70663 266 ft 3 kts
2026-05-04 22:19 55.03870 -1.70660 266 ft 2 kts
2026-05-04 22:19 55.03874 -1.70660 266 ft 0 kts